[[{"header":{"parameterUnit":"m.s-1","parameterCategory":1,"la1":30.2991,"la2":30.254,"lo1":-89.0895,"lo2":-89.0444,"dy":0.0017,"dx":0.0017,"nx":28,"ny":28,"refTime":"2023-08-20T03:00:00:Z","depth":0,"parameterNumber":2,"parameterNumberName":"U-component_of_WINDS"},"data":[0,0,0,0,0,0,0,0,0,0,0,0,0,0,0,0,0,0,0,0,0,0,0,0,0,0,0,0,0,0,0,0,0,0,0,0,0,0,0,0,0,0,0,0,0,0,0,0,0,0,0,0,0,0,0,0,0,0,-5.2943,-5.2943,0,-5.2945,-5.2945,-5.2945,-5.2804,-5.28,-5.2797,-5.2793,-5.2794,-5.2798,-5.2801,0,0,0,0,0,0,0,0,0,0,0,0,0,-5.2818,-5.2821,-5.2943,-5.2943,-5.2943,-5.2945,-5.2945,-5.2945,-5.2805,-5.28,-5.2796,-5.2791,-5.2793,-5.2797,-5.2802,0,0,0,0,0,0,0,0,0,0,0,0,0,-5.2851,-5.2822,-5.2943,-5.2873,-5.2867,-5.2945,-5.2945,-5.2945,-5.2806,-5.28,-5.2794,-5.2789,-5.2792,-5.2797,-5.2802,-5.2946,0,0,-5.2818,-5.282,0,0,0,0,0,0,0,0,-5.2849,-5.2856,-5.2884,-5.2878,-5.2872,-5.2868,-5.2901,-5.2945,-5.2807,-5.2829,-5.2793,-5.2786,-5.2824,-5.2826,-5.2838,-5.2946,-5.2946,-5.2819,-5.2822,-5.2824,-5.2826,0,0,0,0,0,0,0,-5.2847,-5.2855,-5.2944,-5.2884,-5.2877,-5.2842,-5.284,-5.2909,-5.2858,-5.2827,-5.2816,-5.2819,-5.2819,-5.2834,-5.2837,-5.2946,-5.2819,-5.2823,-5.2826,-5.2828,-5.3171,-5.3177,0,0,0,0,0,0,-5.2855,-5.2854,-5.2944,-5.2944,-5.2847,-5.2849,-5.2847,-5.2875,-5.2856,-5.2848,-5.2823,-5.2812,-5.2827,-5.2831,-5.2837,-5.3002,-5.2824,-5.2829,-5.2832,-5.3165,-5.3173,-5.3179,0,0,0,0,0,0,-5.2852,-5.2864,-5.2943,-5.2896,-5.2904,-5.2857,-5.2889,-5.2878,-5.2892,-5.2854,-5.2844,-5.2848,-5.2823,-5.2829,-5.292,-5.3001,-5.2831,-5.2836,-5.3158,-5.3168,-5.3176,-5.3337,0,0,0,0,0,0,-5.2849,-5.2864,-5.2918,-5.2898,-5.2907,-5.3027,-5.2894,-5.2882,-5.2902,-5.2887,-5.2874,-5.2866,-5.2819,-5.2913,-5.2925,-5.3005,-5.284,-5.3151,-5.3163,-5.3173,-5.3324,-5.335,-5.3372,0,0,0,0,0,-5.2845,-5.2964,-5.2922,-5.2933,-5.2974,-5.3032,-5.3037,-5.298,-5.2909,-5.2963,-5.2938,-5.2867,-5.2991,-5.2923,-5.2936,-5.3019,-5.3145,-5.3159,-5.3172,-5.3313,-5.3345,-5.3372,0,0,0,0,0,0,-5.2994,-5.296,-5.2913,-5.3028,-5.3034,-5.3008,-5.3074,-5.3016,-5.3042,-5.3027,-5.2955,-5.2954,-5.3055,-5.3046,-5.2972,-5.3156,-5.3055,-5.3072,-5.3158,-5.3188,-5.3212,-5.321,-5.2845,0,0,0,0,0,-5.3041,-5.3091,-5.3058,-5.3163,-5.3169,-5.3122,-5.3145,-5.3101,-5.3104,-5.3105,-5.3087,-5.3093,-5.3132,-5.316,-5.3195,-5.3323,-5.3317,-5.3386,-5.341,-5.343,-5.3445,-5.351,-5.354,-5.3223,-5.3223,-5.3223,0,0,-5.3136,-5.3124,-5.316,-5.3193,-5.3192,-5.3245,-5.3124,-5.3186,-5.3224,-5.3115,-5.3198,-5.3186,-5.3187,-5.3297,-5.3344,-5.3292,-5.3531,-5.3448,-5.3464,-5.3467,-5.3527,-5.3557,-5.3584,-5.3232,-5.3231,-5.3229,0,0,-5.3337,-5.3334,-5.342,-5.3422,-5.3423,-5.3391,-5.3412,-5.3395,-5.3382,-5.3465,-5.3384,-5.3429,-5.35,-5.3503,-5.3515,-5.3719,-5.3653,-5.3733,-5.3858,-5.3922,-5.3947,-5.3969,-5.404,-5.4066,-5.3747,-5.3748,-5.3748,0,-5.3456,-5.3533,-5.3472,-5.3539,-5.3555,-5.3459,-5.3545,-5.355,-5.3563,-5.3576,-5.3518,-5.3604,-5.3599,-5.3707,-5.3757,-5.377,-5.3791,-5.3732,-5.3949,-5.397,-5.3989,-5.4056,-5.4083,-5.3757,-5.3756,-5.3755,-5.3754,0,-5.3678,-5.3733,-5.3802,-5.3816,-5.3841,-5.3917,-5.3867,-5.39,-5.3855,-5.3829,-5.3914,-5.3905,-5.3935,-5.3958,-5.3914,-5.406,-5.4028,-5.3961,-5.3857,-5.403,-5.4091,-5.4116,-5.3771,-5.3767,-5.3764,-5.3762,0,0,-5.397,-5.395,-5.3976,-5.3981,-5.3975,-5.4016,-5.4089,-5.4118,-5.4147,-5.4159,-5.4217,-5.4279,-5.4217,-5.423,-5.4187,-5.4244,-5.4404,-5.417,-5.4168,-5.4211,-5.4562,-5.461,-5.4641,-5.4362,-5.4367,-5.437,-5.4561,0,-5.4163,-5.4284,-5.4232,-5.4358,-5.4407,-5.4318,-5.438,-5.4384,-5.4362,-5.4401,-5.4377,-5.4421,-5.4337,-5.4344,-5.4397,-5.4373,-5.4473,-5.4359,-5.4413,-5.4416,-5.4413,-5.4673,-5.4724,-5.4904,-5.4585,-5.4589,-5.4592,0,-5.4403,-5.4425,-5.4557,-5.4542,-5.456,-5.4618,-5.464,-5.4679,-5.4681,-5.4661,-5.4676,-5.462,-5.4689,-5.4589,-5.4683,-5.4606,-5.4626,-5.4618,-5.4624,-5.4624,-5.4512,-5.4678,-5.496,-5.4986,-5.4629,-5.4626,-5.4623,0,-5.46,-5.4663,-5.4749,-5.4756,-5.4742,-5.4784,-5.478,-5.4776,-5.4797,-5.4818,-5.483,-5.4859,-5.4875,-5.4898,-5.4851,-5.4783,-5.4951,-5.4847,-5.4935,-5.4936,-5.4971,-5.4969,-5.5258,-5.499,-5.4989,-5.4989,-5.4988,0,-5.4819,-5.4902,-5.4837,-5.489,-5.4981,-5.492,-5.5012,-5.4997,-5.4995,-5.5043,-5.4969,-5.5016,-5.4952,-5.4993,-5.4956,-5.5038,-5.5047,-5.5032,-5.502,-5.5037,-5.5038,-5.5046,-5.5031,-5.4996,-5.4994,-5.4993,-5.4992,0,-5.5053,-5.5013,-5.51,-5.508,-5.5076,-5.5144,-5.5126,-5.5173,-5.5147,-5.5209,-5.522,-5.518,-5.5224,-5.518,-5.5221,-5.5197,-5.5306,-5.5278,-5.5305,-5.5296,-5.5386,-5.5377,-5.5687,-5.5724,-5.5435,-5.5438,-5.544,0,-5.5194,-5.5255,-5.5242,-5.5268,-5.5269,-5.5313,-5.5334,-5.5278,-5.5303,-5.531,-5.5357,-5.5395,-5.5422,-5.5497,-5.547,-5.5501,-5.5472,-5.5579,-5.5476,-5.549,-5.547,-5.5466,-5.5471,-5.5599,-5.5602,-5.5605,-5.5607,0,-5.5447,-5.5424,-5.5458,-5.5485,-5.5512,-5.5531,-5.5544,-5.557,-5.5512,-5.5544,-5.5588,-5.5609,-5.5651,-5.5689,-5.5713,-5.5708,-5.5648,-5.5641,-5.5662,-5.5677,-5.5689,-5.5681,-5.5359,-5.5633,-5.563,-5.5628,-5.5627,-5.5626,-5.5636,-5.5686,-5.5684,-5.5724,-5.5728,-5.5742,-5.5785,-5.5765,-5.5801,-5.583,-5.5795,-5.5849,-5.5849,-5.5875,-5.5877,-5.5918,-5.5873,-5.5905,-5.5912,-5.592,-5.5932,-5.5686,-5.5923,-5.5922,-5.5921,-5.5921,-5.592,0,-5.5883,-5.5878,-5.5915,-5.5935,-5.5967,-5.5909,-5.592,-5.595,-5.5998,-5.6004,-5.6032,-5.6082,-5.6119,-5.6096,-5.6128,-5.6165,-5.6138,-5.6175,-5.617,-5.6169,-5.5972,-5.5949,-5.6196,-5.6196,-5.6196,-5.6195,-5.6195,-5.6195,-5.6015,-5.6097,-5.6074,-5.6157,-5.615,-5.6202,-5.6213,-5.6225,-5.6229,-5.6289,-5.6319,-5.6304,-5.6298,-5.6329,-5.636,-5.6352,-5.6366,-5.6412,-5.6395,-5.621,-5.6183,-5.6157,-5.6135,-5.6416,-5.6417,-5.6587,-5.6589,-5.659]},{"header":{"parameterUnit":"m.s-1","parameterCategory":1,"la1":30.2991,"la2":30.254,"lo1":-89.0895,"lo2":-89.0444,"dy":0.0017,"dx":0.0017,"nx":28,"ny":28,"refTime":"2023-08-20T03:00:00:Z","depth":0,"parameterNumber":3,"parameterNumberName":"V-component_of_WINDS"},"data":[0,0,0,0,0,0,0,0,0,0,0,0,0,0,0,0,0,0,0,0,0,0,0,0,0,0,0,0,0,0,0,0,0,0,0,0,0,0,0,0,0,0,0,0,0,0,0,0,0,0,0,0,0,0,0,0,0,0,0.7297,0.7297,0,0.7269,0.7268,0.7268,0.7221,0.722,0.722,0.7219,0.7189,0.7189,0.7189,0,0,0,0,0,0,0,0,0,0,0,0,0,0.7314,0.7314,0.7297,0.7297,0.7297,0.7269,0.7268,0.7268,0.7221,0.722,0.7219,0.7218,0.7189,0.7189,0.7189,0,0,0,0,0,0,0,0,0,0,0,0,0,0.7298,0.7314,0.7297,0.727,0.7267,0.7269,0.7268,0.7268,0.7222,0.722,0.7219,0.7218,0.7189,0.7189,0.7189,0.7215,0,0,0.7189,0.7189,0,0,0,0,0,0,0,0,0.7299,0.7297,0.7275,0.7272,0.7269,0.7247,0.7263,0.725,0.7222,0.7239,0.7219,0.7217,0.721,0.7208,0.7205,0.7214,0.7212,0.7189,0.7189,0.7189,0.7189,0,0,0,0,0,0,0,0.73,0.7298,0.7286,0.7274,0.7271,0.726,0.7256,0.726,0.7232,0.7237,0.7234,0.7231,0.7208,0.7205,0.7204,0.7212,0.7189,0.7189,0.7189,0.7189,0.7242,0.7244,0,0,0,0,0,0,0.7305,0.73,0.7287,0.7285,0.7281,0.7261,0.7256,0.7255,0.7232,0.7227,0.7232,0.7229,0.7206,0.7204,0.7203,0.7233,0.7189,0.7189,0.719,0.7241,0.7243,0.7244,0,0,0,0,0,0,0.7306,0.7304,0.7288,0.7291,0.7289,0.7262,0.7261,0.7256,0.7253,0.7228,0.7223,0.7235,0.7205,0.7203,0.7213,0.7231,0.719,0.719,0.7239,0.7241,0.7243,0.7292,0,0,0,0,0,0,0.7306,0.7305,0.7314,0.7292,0.7289,0.7298,0.7262,0.7256,0.7253,0.7249,0.7229,0.7224,0.7204,0.7213,0.7213,0.723,0.719,0.7238,0.724,0.7243,0.7289,0.7295,0.7301,0,0,0,0,0,0.7307,0.7328,0.7314,0.7313,0.7299,0.7299,0.7297,0.7273,0.7255,0.7264,0.7248,0.7225,0.7229,0.7215,0.7214,0.7232,0.7236,0.7239,0.7243,0.7286,0.7294,0.7301,0,0,0,0,0,0,0.7352,0.7325,0.7309,0.7324,0.7314,0.7291,0.7302,0.7282,0.7277,0.7273,0.7244,0.724,0.7254,0.7244,0.7228,0.7256,0.7229,0.7233,0.7262,0.727,0.7276,0.7278,0.719,0,0,0,0,0,0.7364,0.7366,0.7342,0.7357,0.7353,0.7329,0.7328,0.731,0.7299,0.7295,0.7279,0.727,0.7269,0.7269,0.7267,0.7287,0.7283,0.7299,0.7306,0.7311,0.7314,0.7326,0.7333,0.7254,0.7254,0.7254,0,0,0.7388,0.7373,0.7376,0.7366,0.7356,0.736,0.7325,0.733,0.7332,0.7295,0.7304,0.7293,0.728,0.7296,0.7302,0.7288,0.7335,0.7315,0.7319,0.7319,0.733,0.7337,0.7344,0.7257,0.7256,0.7256,0,0,0.7433,0.7422,0.7434,0.7426,0.7413,0.7396,0.74,0.738,0.7371,0.738,0.7352,0.7355,0.7354,0.7347,0.7343,0.7389,0.7368,0.7389,0.7422,0.7434,0.744,0.7446,0.7463,0.7469,0.7392,0.7392,0.7392,0,0.7465,0.7469,0.7443,0.745,0.7447,0.7414,0.7427,0.742,0.7407,0.7406,0.739,0.739,0.7379,0.7393,0.7405,0.7402,0.7406,0.7391,0.7441,0.7446,0.7451,0.7467,0.7474,0.7395,0.7395,0.7394,0.7394,0,0.7509,0.7512,0.7524,0.7512,0.7511,0.752,0.7497,0.7499,0.7482,0.7468,0.7478,0.7464,0.746,0.7462,0.7445,0.7475,0.7466,0.7447,0.7419,0.7462,0.7477,0.7483,0.7399,0.7398,0.7397,0.7396,0,0,0.758,0.7556,0.7561,0.7556,0.754,0.7542,0.7552,0.7547,0.755,0.7542,0.755,0.7551,0.7533,0.7529,0.7512,0.7522,0.7561,0.7501,0.75,0.7513,0.7594,0.761,0.7617,0.7547,0.7548,0.7549,0.7596,0,0.7623,0.7637,0.7616,0.7635,0.7638,0.7609,0.7617,0.7608,0.7596,0.7598,0.7584,0.7586,0.7562,0.7559,0.7568,0.7554,0.7577,0.7551,0.7555,0.7555,0.7559,0.7625,0.764,0.7685,0.7601,0.7602,0.7603,0,0.7674,0.767,0.769,0.7674,0.7675,0.7683,0.7678,0.768,0.7671,0.7661,0.7658,0.7638,0.7647,0.762,0.7633,0.7616,0.7617,0.761,0.7611,0.7611,0.7582,0.7627,0.7698,0.7705,0.7612,0.7611,0.761,0,0.7726,0.7725,0.7737,0.7734,0.7716,0.7722,0.7715,0.7704,0.7704,0.77,0.77,0.7698,0.7696,0.7695,0.7676,0.7658,0.7691,0.7663,0.7685,0.7685,0.7693,0.7692,0.7766,0.7693,0.7693,0.7692,0.7692,0,0.7775,0.7789,0.776,0.7768,0.7783,0.7759,0.7774,0.7764,0.7755,0.7761,0.7735,0.7742,0.7715,0.7719,0.7703,0.7717,0.7716,0.771,0.7705,0.7712,0.7713,0.7712,0.7709,0.7694,0.7694,0.7693,0.7693,0,0.7835,0.7816,0.7828,0.7811,0.7807,0.7819,0.7804,0.7811,0.7798,0.7806,0.7806,0.7786,0.7789,0.7769,0.7768,0.7758,0.778,0.777,0.7783,0.778,0.7803,0.7802,0.7879,0.7888,0.7809,0.781,0.781,0,0.7868,0.7878,0.7862,0.7865,0.7859,0.7863,0.7863,0.784,0.7841,0.7832,0.7841,0.7842,0.7841,0.7848,0.7834,0.7834,0.7824,0.7851,0.7824,0.7831,0.7825,0.7825,0.7827,0.7857,0.7858,0.7859,0.7859,0,0.7929,0.792,0.7921,0.7919,0.792,0.7918,0.7913,0.7917,0.7892,0.7895,0.7898,0.7898,0.7899,0.7901,0.7898,0.7891,0.7872,0.7868,0.7873,0.788,0.7888,0.7885,0.7799,0.7866,0.7866,0.7865,0.7865,0.7864,0.7977,0.7985,0.7976,0.7979,0.7973,0.7971,0.7977,0.7965,0.7967,0.7966,0.7953,0.7959,0.7951,0.7946,0.7941,0.7946,0.7933,0.794,0.7942,0.7945,0.7949,0.7887,0.7946,0.7945,0.7945,0.7945,0.7945,0,0.8038,0.8031,0.8033,0.8029,0.8031,0.8013,0.8008,0.8012,0.8017,0.8012,0.8013,0.8018,0.802,0.8006,0.8007,0.8014,0.8005,0.8015,0.8014,0.8014,0.796,0.7956,0.8022,0.8022,0.8022,0.8022,0.8022,0.8022,0.807,0.8083,0.8073,0.8085,0.8078,0.8084,0.8083,0.8081,0.8076,0.8083,0.8085,0.8076,0.8068,0.8068,0.807,0.8066,0.8068,0.8081,0.8074,0.8025,0.8017,0.801,0.8006,0.8082,0.8082,0.8127,0.8128,0.8128]}]]